Weather Roundup
Issued by NWS Chicago, IL

Current Version | Previous Version | Text Only | Print | Product List | Glossary On
Versions: 1 2 3 4 5 6 7 8 9 10 11 12 13 14 15 16 17 18 19 20 21 22 23 24 25 26 27 28 29 30 31 32 33 34 35 36 37 38 39 40 41 42 43 44 45 46 47 48 49 50
000
NZUS59 KLOT 210521
HRRLOT

CHICAGO AREA WEATHER ROUNDUP
NATIONAL WEATHER SERVICE CHICAGO/ROMEOVILLE IL
1200 AM CDT TUE APR 21 2015

NOTE: "FAIR" INDICATES FEW OR NO CLOUDS BELOW 12,000 FEET WITH NO
SIGNIFICANT WEATHER AND/OR OBSTRUCTIONS TO VISIBILITY.

* THESE STATIONS ARE NOT UNDER NWS QUALITY CONTROL. THEY ALSO MAY NOT
  REPORT WEATHER SUCH AS PRECIPITATION OR FOG.

ILZ005-006-012>014-019>023-210600-
NORTHEAST ILLINOIS

CITY           SKY/WX    TMP DP  RH WIND       PRES   REMARKS
OHARE          PTCLDY    42  33  70 W14       29.61S
MIDWAY         LGT RAIN  44  35  70 SW12      29.63S
AURORA         CLOUDY    41  33  73 SW10      29.64S
LANSING*       CLOUDY    43  32  66 SW9       29.66R
JOLIET*        MOCLDY    43  35  72 SW10      29.65F
WAUKEGAN       CLOUDY    41  31  67 VRB7      29.57F
DUPAGE AIRPORT PTCLDY    40  34  79 SW9       29.61F
WHEELING       PTCLDY    42  33  70 W10       29.61S
KANKAKEE*      CLEAR     38  36  89 SW5       29.69R
MORRIS*        MOCLDY    42  34  75 W9        29.65F
LEWIS AIRPORT* MOCLDY    42  34  73 W13       29.64S
NORTHERLY IS     N/A     45  33  63 W10         N/A
$$

WIZ051-052-058>065-066-070>072-210600-
SOUTHEAST WISCONSIN

CITY           SKY/WX    TMP DP  RH WIND       PRES   REMARKS
MILWAUKEE      CLOUDY    44  26  49 W15       29.54S
KENOSHA*       CLOUDY    42  32  67 W16       29.56S
RACINE*        CLOUDY    43  29  57 SW9G21    29.56S
BURLINGTON     CLOUDY    40  32  73 SW12      29.55F
WAUKESHA       CLOUDY    39  28  65 W10G22    29.54S
WEST BEND      CLOUDY    41  30  65 SW12G20   29.50S
$$

INZ001>003-010>013-019-020-210600-
NORTHWEST INDIANA

CITY           SKY/WX    TMP DP  RH WIND       PRES   REMARKS
GARY*          MOCLDY    46  31  56 SW7       29.65S
MICHIGAN CITY* NOT AVBL
RENSSELAER*    NOT AVBL
VALPARAISO     PTCLDY    41  34  76 SW9       29.66S
$$

LMZ740>746-210600-
SOUTHERN LAKE MICHIGAN

STATION/POSITION TIME  SKY/WX   TEMP WIND        PRES    VSBY
                                AIR  DIR/SP/G
                 (UTC)          (F)  (DEG/KT/KT) (MB)    (MI)
HARRISON CRIB    0500            44  240/ 18/ 25   N/A
BURNHAM HARBOR   0500            45  250/  8/ 14   N/A
CALUMET HARBOR   0400            44  230/  9/ 13   N/A
BURNS HARBOR     0400            46  230/ 17/ 20 1004.4S
MICHIGAN CITY    0500            45  200/ 17/ 22   N/A
$$

ABBREVIATIONS USED IN REMARKS
   TC - TEMPERATURE IN CELSIUS
  WCI - WIND CHILL INDEX
   HX - HEAT INDEX
  VSB - VISIBILITY
$$



USA.gov is the U.S. government's official web portal to all federal, state and local government web resources and services.